STARLINK-35010 (65281 NORAD) Tracking and Keplerian Element Data

This shows tracking and keplerian element data for the satellite.

Feedback or suggestion? Click here.




ElementValue
Catalog65281
NameSTARLINK-35010
Epoch Orbit1933
Epoch Day354.14175192
Epoch Year2025
RAAN44.2829
Inclination97.6059
Eccentricity0.0001136
Argument of Perigee98.1073
Mean Anonmoly262.0283
Mean Motion15.05658728
Decay Rate3.896E-05
L11 65281U 25184J 25354.14175192 .00003896 00000+0 27404-3 0 9996
L22 65281 97.6059 44.2829 0001136 98.1073 262.0283 15.05658728 19334



Live tracking and technical data element details for STARLINK-35010 (NORAD 65281). STARLINK-35010 can be tracked NOW for your location showing map with azimuth and elevation plus other details from your city location.







IsCatalogInMostPopularTable: catalog: 65281, numindb: 7
Update: records affected: 1



GetName: 65281 STARLINK-35010

Hit Count: updated at: Tue, 21 Apr 2026 19:39:31 GMT